Location: Asni�res
(49.1337°N, 2.3555°E)
Time: 08:31:45
(UTC+00:00)

Cosmos 1535 Rocket - Visible Passes

Search period start: 25 May 2022 00:00
Search period end: 04 June 2022 00:00
Orbit: 947 x 1005 km, 83.0° (Epoch: 24 May)

Date Brightness Start Highest point End Pass type
(mag) Time Alt. Az. Time Alt. Az. Time Alt. Az.
25 May 7.3 02:58:33 10° NNE 03:02:53 19° ENE 03:07:13 10° ESE visible
27 May 7.9 02:07:11 10° NE 02:07:49 10° NE 02:08:26 10° ENE visible
28 May 7.3 02:30:11 10° NNE 02:34:09 17° ENE 02:38:08 10° E visible
29 May 6.8 02:55:01 10° N 03:00:16 28° ENE 03:05:33 10° SE visible
31 May 7.3 02:01:52 10° NNE 02:05:24 15° ENE 02:08:57 10° E visible
01 Jun 6.8 02:26:32 10° N 02:31:34 25° ENE 02:36:38 10° ESE visible
02 Jun 6.0 02:51:42 10° N 02:57:33 40° ENE 03:03:27 10° SE visible
03 Jun 7.3 01:33:38 10° NNE 01:36:39 14° NE 01:39:40 10° E visible
